RH
96 95 96 96 96 96 95 96 96 96 96 91 84 67 29 8 5 4 4 4 4 6 19 32 53 70 53 72 55 53 44 33 35 49 54 51 50 48 53 54 49 48 46 44 47 52 50
94 96 96 96 96 96 96 96 96 94 94 92 85 64 32 16 11 7 5 4 8 10 21 42 52 73 70 52 46 46 38 44 49 52 49 46 52 50 58 60 58 47 52 57 54 49 50
95 95 95 96 96 96 95 96 96 91 92 84 80 64 32 26 24 17 19 8 9 16 33 54 69 77 79 55 37 45 54 50 49 48 48 44 49 57 62 62 53 56 69 62 58 56 58
95 94 94 95 95 96 96 95 96 93 81 66 22 12 10 9 17 8 4 8 9 34 57 59 84 95 78 45 44 56 57 51 50 49 49 53 53 60 67 59 66 63 64 74 41 51 43
94 94 95 95 95 96 95 95 91 76 61 24 6 6 5 26 30 17 6 16 31 60 67 64 80 90 68 42 40 49 53 49 52 52 53 52 58 74 64 82 87 73 75 70 52 42 52
94 94 95 96 96 95 94 89 76 55 44 7 4 5 17 34 23 21 42 52 49 72 87 79 82 71 50 42 41 41 48 46 53 56 64 66 78 85 85 87 81 78 65 53 48 30 36
94 95 95 96 95 93 86 67 43 27 9 5 4 6 35 39 25 44 46 60 59 60 66 65 61 54 39 49 46 47 42 47 50 60 82 83 94 97 87 78 64 55 46 46 40 33 38
94 95 95 96 93 81 54 36 27 16 8 4 4 9 34 39 36 46 42 71 76 79 90 56 47 41 33 42 49 55 48 66 69 86 72 76 95 73 66 61 49 44 48 51 45 38 42
94 94 95 93 87 68 41 41 20 19 17 5 5 13 36 39 35 50 64 79 74 70 89 58 36 38 41 37 44 57 57 59 66 74 75 83 64 48 53 46 48 47 54 52 49 43 43
94 95 95 93 91 77 70 47 25 15 6 5 5 21 44 38 38 60 71 74 74 70 85 54 46 45 41 40 49 49 52 52 54 59 55 61 46 50 49 48 47 58 41 43 51 57 64
95 94 96 94 92 72 62 58 40 14 6 5 6 33 42 60 69 75 59 64 76 73 34 28 39 32 36 46 42 52 44 51 69 57 50 58 46 43 53 49 37 47 45 52 55 62 67
95 95 95 93 85 67 40 29 26 13 6 5 7 40 32 34 54 49 58 72 77 67 32 47 39 44 42 38 42 62 60 56 60 62 59 61 43 41 46 41 41 42 50 55 57 70 94
94 95 94 92 91 75 56 34 21 12 6 5 10 43 39 45 31 50 68 77 64 56 40 61 58 51 51 48 34 53 64 78 75 72 62 48 39 43 42 44 47 50 68 90 91 93 93
94 94 93 94 90 89 61 43 30 8 6 5 14 52 47 26 40 58 75 61 50 62 73 54 54 57 56 41 38 39 40 52 57 60 66 69 69 46 46 50 52 60 64 83 90 92 77
92 93 92 93 92 82 53 37 24 7 6 6 21 60 53 13 38 59 77 86 93 75 53 58 61 52 46 48 50 50 54 66 61 52 75 82 65 46 38 40 42 47 67 56 72 60 79
92 92 92 94 88 75 85 58 39 8 6 11 41 53 30 15 37 68 79 77 75 44 39 46 78 63 71 64 66 65 55 58 58 46 43 57 82 55 45 43 42 51 48 70 78 78 80
91 90 92 92 89 92 75 48 31 10 6 14 46 65 26 12 49 71 90 68 58 35 39 44 60 70 68 58 47 61 66 62 46 43 40 40 60 64 47 48 48 50 68 57 63 61 73
88 90 90 89 93 88 86 75 53 24 11 18 58 44 18 17 42 51 47 48 42 40 40 42 41 48 46 42 40 34 64 62 36 39 47 39 47 69 52 34 33 38 47 46 64 84 62
90 88 89 90 91 89 88 88 48 41 47 67 62 51 17 17 43 49 38 38 43 39 39 45 47 42 42 42 42 32 40 47 38 40 45 45 57 65 20 38 39 43 35 28 28 67 85
88 88 87 90 88 88 87 87 39 24 24 45 51 42 49 49 40 36 37 39 41 37 36 38 39 40 46 47 40 51 47 41 42 38 35 41 76 54 59 55 48 45 40 33 29 56 49
89 87 86 89 85 86 84 87 70 35 24 40 58 56 48 58 40 38 32 40 45 57 44 40 44 50 54 60 57 55 48 50 44 40 37 46 64 54 55 49 44 42 40 36 42 34 38
89 88 85 84 86 86 83 83 88 55 39 48 76 77 73 65 35 30 50 53 55 53 49 52 57 57 57 65 57 73 60 59 62 43 51 51 63 61 61 41 42 52 43 42 40 38 36
91 87 88 85 90 84 86 90 88 91 60 63 68 67 72 64 50 46 51 47 51 54 49 45 50 56 63 55 49 49 49 49 50 56 58 64 66 63 73 57 51 52 51 42 66 58 65
88 92 87 86 87 86 86 88 85 91 84 79 74 80 77 73 66 67 59 57 56 55 60 50 47 52 44 40 45 47 49 49 51 52 50 66 64 59 80 65 91 44 25 24 27 29 43
87 88 86 87 86 89 94 92 85 85 93 85 87 83 85 94 72 69 72 69 65 60 62 57 44 43 45 49 64 61 52 38 32 44 48 52 70 73 84 68 53 41 33 33 30 34 37
84 88 88 89 91 93 94 94 94 89 86 84 80 88 93 98 81 68 77 72 81 85 83 54 51 54 54 59 57 74 70 50 45 37 32 32 54 91 90 94 80 42 34 26 27 37 37
89 92 92 94 94 94 94 94 94 94 86 85 80 84 98 99 83 60 85 84 73 81 94 85 70 68 60 69 71 69 62 44 58 62 67 57 56 62 57 69 54 51 34 31 38 41 37
96 96 94 91 92 90 89 90 91 91 84 90 86 81 89 100 91 71 63 76 80 85 97 76 83 68 75 92 88 83 85 73 86 70 76 82 80 76 72 72 78 39 48 56 44 44 43
97 95 95 94 94 90 88 89 90 88 80 85 88 81 84 98 89 70 69 65 72 68 87 90 79 82 83 92 95 95 87 82 90 89 50 78 62 89 94 71 48 49 60 56 52 52 53
Wind_Speed
14 14 15 16 17 18 18 19 19 20 20 20 21 21 22 22 22 21 21 21 21 20 18 16 12 7 1 2 8 6 10 8 6 5 3 1 1 1 3 3 6 6 4 7 10 9 9
14 15 16 17 18 18 19 20 21 21 22 22 23 23 24 25 24 24 23 23 21 21 17 12 8 3 2 3 5 9 11 9 6 6 3 1 3 2 3 4 2 4 7 8 9 15 7
14 16 17 17 18 19 20 21 22 23 23 24 25 26 27 28 27 26 26 24 22 21 13 8 5 4 3 10 3 7 10 8 9 6 2 5 4 2 5 5 5 6 10 9 10 6 8
16 16 17 18 19 20 21 22 23 24 24 26 28 29 31 30 28 26 24 23 21 17 5 4 3 2 6 3 5 9 11 7 5 5 2 1 3 1 3 4 6 4 1 4 5 6 3
16 17 18 19 20 21 22 23 24 25 27 29 32 33 32 30 30 28 24 20 13 4 1 3 6 5 7 1 5 14 11 6 9 5 2 3 2 4 2 2 4 3 4 6 7 7 5
16 17 18 19 21 22 23 24 25 27 28 31 34 34 29 29 29 21 20 10 3 3 3 3 6 2 3 2 4 6 14 13 3 4 1 2 3 2 2 3 4 5 4 6 8 2 2
16 17 19 20 21 22 24 25 26 28 31 33 35 33 28 28 19 17 19 3 6 3 2 5 2 4 8 3 3 2 13 4 1 3 4 5 3 8 10 12 6 6 5 6 8 10 6
16 18 19 21 22 23 24 26 28 29 32 35 35 31 27 25 9 17 12 6 4 4 9 6 10 8 3 2 1 4 9 5 5 6 5 4 9 15 10 12 9 6 7 10 7 9 4
16 18 20 21 23 24 26 28 29 30 33 37 36 28 26 24 5 11 19 10 6 9 3 7 1 3 2 2 2 5 9 4 6 6 9 9 11 2 7 7 8 7 7 6 9 4 4
16 18 20 21 23 25 27 29 30 32 35 38 35 23 23 20 1 13 4 16 8 8 4 3 2 2 1 1 2 3 11 3 3 8 7 9 16 15 11 8 6 7 8 9 4 4 3
16 18 20 22 24 26 28 30 32 34 36 38 33 19 20 14 8 4 15 17 9 1 5 5 1 1 2 2 3 1 1 0 6 7 4 8 4 5 6 7 4 7 0 3 3 3 3
17 19 21 22 24 26 28 31 33 35 36 37 29 14 16 13 5 12 18 12 1 5 4 5 4 8 8 4 3 2 1 1 4 4 6 11 4 4 7 3 3 4 4 6 2 3 1
17 19 21 22 24 26 29 31 34 36 37 38 24 10 12 8 12 20 14 3 5 4 6 8 6 9 8 5 4 4 4 1 3 5 3 5 5 1 2 3 2 2 3 3 3 1 6
17 19 21 24 26 28 30 32 34 36 37 36 19 8 6 11 18 14 7 4 3 3 4 5 6 13 4 10 6 8 7 3 10 6 3 3 7 1 2 3 3 5 5 3 3 3 3
17 19 21 24 26 29 31 34 36 37 38 32 16 5 2 29 16 9 4 5 1 3 4 7 10 4 5 7 5 8 4 5 6 9 4 5 5 10 13 4 2 4 3 4 3 4 1
17 19 22 24 27 30 32 34 37 39 37 27 10 5 4 32 12 4 4 5 4 3 4 3 3 5 4 8 7 8 3 5 7 8 3 5 6 6 6 5 5 5 1 3 2 3 4
16 19 22 25 28 30 32 34 37 38 37 27 5 4 15 28 6 5 4 2 3 6 6 3 4 5 4 5 5 4 4 3 5 8 7 6 3 5 8 3 5 4 4 3 2 2 3
16 19 21 24 26 30 32 34 35 37 37 24 8 3 22 17 4 3 2 1 3 5 8 4 4 3 3 7 5 3 4 3 6 5 5 3 4 5 8 16 18 13 8 2 2 4 2
15 18 20 23 25 28 32 35 36 35 27 12 3 3 13 14 4 4 5 2 2 5 4 5 4 4 5 3 5 4 6 4 12 9 5 7 3 5 8 3 7 5 6 10 9 0 3
15 17 19 21 24 27 31 34 35 32 26 5 3 4 4 5 2 3 4 3 4 3 1 5 4 3 5 3 5 7 8 6 16 5 16 7 3 6 4 5 9 11 18 13 6 3 6
13 16 18 19 22 25 28 31 34 33 25 5 4 2 2 4 4 4 2 4 4 7 6 5 2 5 5 3 10 3 13 11 8 11 6 3 5 3 9 12 13 17 20 20 12 11 8
12 14 16 18 20 23 26 29 30 35 20 14 3 3 4 3 4 4 6 5 5 4 3 5 3 8 6 5 4 11 11 6 6 5 4 6 5 10 15 12 13 14 12 15 14 13 11
11 13 14 17 19 21 22 25 25 28 25 10 7 5 3 4 6 4 3 3 4 6 5 3 7 9 5 9 5 10 12 16 15 11 14 5 3 3 4 6 12 4 5 10 8 13 10
10 11 13 14 16 18 19 20 21 21 22 10 6 3 3 3 4 4 6 6 7 7 8 9 7 4 5 6 7 9 14 17 17 16 12 7 4 5 6 8 4 2 4 10 8 9 11
8 10 11 14 14 15 18 18 18 17 19 13 7 4 2 2 2 5 8 5 6 7 6 11 4 4 6 5 4 6 5 6 8 6 6 14 5 4 4 4 9 10 9 10 8 17 7
8 9 10 12 13 15 16 16 16 15 15 17 10 1 0 1 3 3 3 5 4 4 5 4 8 11 5 2 3 3 5 6 5 6 6 10 5 2 4 6 9 1 6 11 6 12 9
7 8 10 12 13 15 16 16 13 14 15 14 5 11 3 2 3 2 3 4 3 3 3 5 5 6 2 1 4 3 4 4 4 5 5 6 5 5 10 8 7 7 8 9 9 7 14
6 9 10 11 13 15 15 15 14 14 14 13 12 8 4 2 5 5 4 3 7 2 3 4 4 3 3 1 2 3 1 2 3 5 4 4 3 4 4 6 10 4 8 2 9 21 17
7 8 10 11 13 15 15 15 14 15 14 14 7 16 12 6 6 17 28 22 18 24 3 3 4 2 3 0 1 3 5 3 3 6 4 4 4 4 4 6 12 15 12 10 13 14 12
Wind_Direction
31 32 27 24 19 15 11 7 5 2 358 355 350 348 344 341 337 332 328 325 321 319 316 316 315 300 329 205 248 179 177 182 168 154 203 260 310 266 256 318 323 247 262 267 280 290 282
34 31 25 22 18 13 10 6 4 2 358 354 349 346 341 337 333 329 327 324 320 316 313 311 306 246 176 228 162 187 186 177 169 173 224 191 322 1 278 255 236 267 283 276 276 276 251
35 29 25 19 15 13 9 6 3 1 357 352 348 344 339 335 331 327 324 320 317 311 308 303 272 194 260 244 256 184 185 188 184 194 264 254 122 101 324 287 288 280 297 301 264 239 218
33 28 23 19 15 13 10 6 3 0 356 353 351 347 343 339 334 330 325 319 314 308 299 292 209 184 252 267 183 191 190 203 199 218 254 84 90 179 201 294 325 262 197 309 283 189 199
31 26 22 19 15 12 9 6 2 359 356 355 352 349 348 346 341 335 330 324 313 332 344 166 145 179 268 263 198 214 204 204 190 199 209 264 110 222 253 191 319 247 238 216 301 193 156
30 26 21 18 16 12 8 5 2 0 357 356 354 351 351 349 345 347 349 339 4 84 85 146 276 359 272 299 188 203 204 223 180 174 224 219 198 237 260 142 228 203 232 283 263 275 259
30 26 22 18 15 11 8 5 3 1 360 358 355 351 352 351 358 5 357 19 14 358 225 230 137 290 311 121 158 181 194 166 275 185 208 197 184 226 213 214 243 300 245 248 268 272 248
30 25 22 18 14 11 8 6 4 1 360 357 355 352 352 351 14 20 38 64 65 251 310 271 262 250 276 204 221 190 153 164 174 220 232 292 242 241 235 246 233 266 289 279 289 273 202
31 25 21 17 14 11 7 4 3 359 357 356 354 354 353 351 29 25 66 44 349 349 255 299 281 28 333 47 299 192 152 204 224 225 232 218 242 243 212 253 256 246 228 249 254 306 278
31 24 20 16 13 9 5 2 0 358 358 356 354 356 357 358 43 351 71 348 354 343 35 284 54 323 274 230 263 139 194 229 270 233 233 233 253 249 261 254 191 257 233 239 275 25 238
32 25 21 17 12 9 5 1 359 357 357 356 353 359 4 22 344 25 322 328 339 155 10 297 15 245 266 226 244 204 173 249 251 263 359 254 285 250 247 229 196 245 5 261 242 246 350
32 25 21 17 12 7 4 2 359 356 355 353 352 1 15 19 358 329 332 328 337 45 265 1 56 1 354 281 226 124 220 109 262 295 240 256 277 239 226 232 205 304 332 297 186 140 290
30 25 20 17 13 8 4 1 359 355 354 351 353 360 17 10 329 332 336 18 35 118 336 356 343 338 324 280 319 191 208 188 341 328 304 307 257 49 87 353 344 121 52 313 8 164 232
30 25 19 15 12 8 5 1 358 356 354 350 354 11 13 342 340 339 349 54 103 20 358 9 321 310 226 35 329 338 342 356 31 352 301 307 330 326 49 223 214 214 182 178 273 219 261
31 23 19 16 12 9 5 2 359 355 355 350 358 10 355 354 345 346 64 55 71 13 334 318 313 324 334 18 354 3 48 5 38 32 352 342 286 331 324 261 129 304 226 225 217 265 95
30 24 20 17 12 10 6 4 360 357 357 353 357 359 317 346 343 22 66 104 114 43 319 292 325 29 320 337 0 356 293 357 342 7 355 305 298 273 317 328 272 218 327 353 247 244 245
32 25 21 18 13 8 8 7 1 358 356 359 18 27 351 345 353 47 86 60 57 32 14 331 342 310 327 349 322 287 6 36 14 333 343 5 251 297 326 282 294 346 310 261 326 252 213
33 27 23 17 15 9 7 7 6 2 356 5 351 26 356 355 45 46 63 38 58 346 14 340 8 352 336 347 294 287 21 61 24 4 358 321 287 279 261 275 270 260 287 310 304 305 272
34 28 22 19 14 10 8 7 7 5 10 334 358 295 1 17 60 1 325 76 72 12 19 6 338 17 23 288 310 297 341 129 28 7 359 347 323 321 311 307 18 23 341 10 339 60 244
34 26 25 20 15 12 11 9 11 6 6 10 46 11 341 32 57 50 6 6 13 12 19 346 283 20 1 330 357 312 312 326 341 351 307 293 239 234 246 320 334 300 312 320 318 270 282
32 30 23 18 15 14 14 12 13 14 15 48 28 26 136 341 350 339 341 30 25 9 349 334 358 57 19 308 311 267 332 328 332 310 353 43 268 289 311 310 304 288 291 298 277 250 233
37 28 22 16 17 14 14 15 17 22 29 57 65 17 352 297 317 19 11 15 33 338 300 315 22 343 344 294 282 317 313 307 249 295 4 354 294 332 301 290 271 295 279 268 272 271 253
34 25 20 16 17 18 17 15 18 21 30 45 6 351 100 301 345 31 350 332 326 328 293 304 310 299 278 278 263 272 264 266 252 268 274 275 262 294 278 331 334 255 13 36 65 47 29
30 24 17 16 17 19 18 17 17 19 22 21 12 333 38 316 6 4 331 350 323 331 295 301 300 301 274 294 302 287 271 265 259 249 220 236 220 268 284 309 243 143 70 44 20 30 53
26 17 15 15 14 15 12 13 15 13 14 21 352 7 33 295 297 327 345 331 329 317 310 305 285 297 325 342 312 305 308 351 336 243 206 209 215 246 256 248 282 314 42 21 18 328 46
20 14 13 17 12 6 3 1 3 8 4 0 4 336 47 307 246 315 324 280 311 307 311 271 314 325 5 278 284 273 328 290 332 322 29 5 221 292 317 289 266 102 354 3 309 292 351
19 19 12 2 0 1 355 350 360 357 360 346 329 350 251 259 271 243 276 260 289 309 279 295 322 305 194 274 283 289 280 282 317 338 337 328 328 298 310 301 260 235 325 320 315 298 330
6 5 5 3 2 357 351 353 351 355 354 354 325 7 323 261 267 244 215 285 297 218 207 272 351 360 6 350 289 289 337 269 340 258 276 270 273 276 266 279 283 12 347 51 300 305 300
355 0 351 348 350 348 345 344 345 348 348 347 319 327 324 230 255 279 289 284 254 248 205 215 219 314 259 297 295 261 297 270 220 289 251 264 219 274 245 262 288 303 306 315 303 302 324